Location: Atlantic Beach
(40.5890°N, 73.7290°W)
Time: 15:50:51
(UTC+00:00)

ISS - Visible Passes

Search period start: 22 January 2021 00:00
Search period end: 01 February 2021 00:00
Orbit: 418 x 421 km, 51.6° (Epoch: 22 January)

Date Brightness Start Highest point End Pass type
(mag) Time Alt. Az. Time Alt. Az. Time Alt. Az.
22 Jan -1.6 23:56:35 10° WNW 23:59:02 19° NNW 23:59:02 19° NNW visible
23 Jan -2.0 23:08:42 10° W 23:11:32 24° NNW 23:13:40 14° NNE visible
24 Jan -1.2 23:59:46 10° NW 00:01:13 14° NNW 00:01:13 14° NNW visible
25 Jan -1.4 23:11:49 10° NW 23:13:56 16° NNW 23:15:46 11° NNE visible
27 Jan -1.0 00:02:32 10° NNW 00:03:16 12° NNW 00:03:16 12° NNW visible
27 Jan -1.3 23:14:49 10° NNW 23:16:27 13° N 23:17:48 11° NNE visible
29 Jan -1.1 00:04:32 10° NNW 00:05:18 13° NNW 00:05:18 13° NNW visible
29 Jan -1.5 23:17:08 10° NNW 23:18:56 14° N 23:19:51 13° NNE visible
31 Jan -1.5 00:06:09 10° NNW 00:07:24 17° NNW 00:07:24 17° NNW visible
31 Jan -2.0 23:18:50 10° NNW 23:21:18 18° NNE 23:22:03 17° NE visible
